Weather History for Woodward, OK

Change the Weather History Date:

Monday, November 19, 2012

  Actual Average (KGAG) Record (KGAG)
Temperature  
Mean Temperature 58 °F -  
Max Temperature 71 °F 56 °F 84 °F (2007)
Min Temperature 44 °F 31 °F 16 °F (1980)
Degree Days  
Heating Degree Days 8    
Growing Degree Days 8 (Base 50)    
Moisture  
Dew Point 45 °F    
Average Humidity 70    
Maximum Humidity 100    
Minimum Humidity 35    
Precipitation  
Precipitation 0.00 in - - ()
Sea Level Pressure  
Sea Level Pressure 30.13 in    
Wind  
Wind Speed 10 mph (SW)    
Max Wind Speed 20 mph    
Max Gust Speed 24 mph    
Visibility 10 miles    
Events      
Averages and records for this station are not official NWS values.
T = Trace of Precipitation, MM = Missing Value Source: NWS Daily Summary

Daily Weather History Graph

Daily Weather History Graph

Search for Another Location

Airport:

Trip Planner

Search our weather history database for the weather conditions in past years. The results will help you decide how hot, cold, wet, or windy it might be!

Date:

Astronomy

Nov. 19, 2012 Rise Set
Actual Time 7:20 AM CST 5:26 PM CST
Civil Twilight 6:52 AM CST 5:54 PM CST
Nautical Twilight 6:20 AM CST 6:25 PM CST
Astronomical Twilight 5:50 AM CST 6:56 PM CST
Moon 12:27 PM CST (11/19) 11:51 PM CST (11/19)
Length of Visible Light 11h 02m
Length of Day
10h 06m
Waxing Crescent, 41% of the Moon is Illuminated
Nov 19
Waxing Crescent
Nov 20
First Quarter
Nov 28
Full
Dec 6
Last Quarter
Dec 13
New

Hourly Weather History & Observations

Time (CST) Temp. Windchill Dew Point Humidity Pressure Visibility Wind Dir Wind Speed Gust Speed Precip Events Conditions
12:15 AM 55.4 °F - 48.2 °F 77% 30.07 in 10.0 mi South 19.6 mph 24.2 mph N/A   Clear
12:35 AM 55.4 °F - 48.2 °F 77% 30.07 in 10.0 mi South 17.3 mph 23.0 mph N/A   Clear
12:55 AM 55.4 °F - 48.2 °F 77% 30.07 in 10.0 mi South 17.3 mph 23.0 mph N/A   Clear
1:15 AM 55.4 °F - 48.2 °F 77% 30.07 in 10.0 mi South 17.3 mph 23.0 mph N/A   Clear
1:35 AM 53.6 °F - 48.2 °F 82% 30.07 in 10.0 mi South 16.1 mph - N/A   Clear
1:55 AM 53.6 °F - 48.2 °F 82% 30.07 in 10.0 mi SSW 13.8 mph - N/A   Clear
2:35 AM 53.6 °F - 48.2 °F 82% 30.07 in 10.0 mi SSW 11.5 mph - N/A   Clear
2:55 AM 53.6 °F - 48.2 °F 82% 30.07 in 10.0 mi SSW 11.5 mph - N/A   Clear
3:15 AM 53.6 °F - 48.2 °F 82% 30.07 in 10.0 mi SSW 11.5 mph - N/A   Clear
3:35 AM 51.8 °F - 48.2 °F 88% 30.07 in 10.0 mi SSW 9.2 mph - N/A   Clear
3:55 AM 51.8 °F - 48.2 °F 88% 30.07 in 10.0 mi South 6.9 mph - N/A   Clear
4:15 AM 51.8 °F - 48.2 °F 88% 30.07 in 10.0 mi SSW 11.5 mph - N/A   Clear
4:35 AM 51.8 °F - 48.2 °F 88% 30.07 in 10.0 mi SSW 10.4 mph - N/A   Clear
4:55 AM 51.8 °F - 48.2 °F 88% 30.07 in 10.0 mi SSW 11.5 mph - N/A   Clear
5:15 AM 50.0 °F - 46.4 °F 87% 30.07 in 10.0 mi SW 8.1 mph - N/A   Clear
5:35 AM 48.2 °F - 46.4 °F 93% 30.07 in 10.0 mi SW 8.1 mph - N/A   Clear
5:55 AM 46.4 °F 42.4 °F 44.6 °F 93% 30.07 in 10.0 mi SSW 8.1 mph - N/A   Clear
6:15 AM 46.4 °F 41.5 °F 44.6 °F 93% 30.09 in 10.0 mi SW 10.4 mph - N/A   Clear
6:35 AM 46.4 °F 41.1 °F 44.6 °F 93% 30.10 in 10.0 mi SW 11.5 mph - N/A   Clear
6:55 AM 46.4 °F 41.9 °F 44.6 °F 93% 30.11 in 10.0 mi SW 9.2 mph - N/A   Clear
7:35 AM 44.6 °F 40.2 °F 44.6 °F 100% 30.12 in 5.0 mi WSW 8.1 mph - N/A   Clear
7:55 AM 46.4 °F 42.4 °F 44.6 °F 93% 30.12 in 3.0 mi WSW 8.1 mph - N/A   Clear
8:15 AM 46.4 °F 42.9 °F 44.6 °F 93% 30.13 in 4.0 mi WSW 6.9 mph - N/A   Clear
8:35 AM 48.2 °F - 46.4 °F 93% 30.14 in 7.0 mi SW 8.1 mph - N/A   Clear
8:55 AM 50.0 °F - 46.4 °F 87% 30.15 in 10.0 mi SW 8.1 mph - N/A   Clear
9:15 AM 51.8 °F - 46.4 °F 82% 30.15 in 10.0 mi WSW 8.1 mph - N/A   Clear
9:35 AM 53.6 °F - 46.4 °F 77% 30.15 in 10.0 mi West 8.1 mph - N/A   Clear
9:55 AM 53.6 °F - 46.4 °F 77% 30.15 in 10.0 mi NW 5.8 mph - N/A   Clear
10:15 AM 55.4 °F - 46.4 °F 72% 30.16 in 10.0 mi NW 4.6 mph - N/A   Clear
10:35 AM 59.0 °F - 46.4 °F 63% 30.15 in 10.0 mi WNW 3.5 mph - N/A   Clear
10:55 AM 60.8 °F - 44.6 °F 55% 30.16 in 10.0 mi North 4.6 mph - N/A   Clear
11:15 AM 60.8 °F - 44.6 °F 55% 30.16 in 10.0 mi NNW 3.5 mph - N/A   Clear
11:35 AM 62.6 °F - 44.6 °F 52% 30.16 in 10.0 mi NNW 3.5 mph - N/A   Clear
11:55 AM 64.4 °F - 44.6 °F 49% 30.16 in 10.0 mi North 4.6 mph - N/A   Clear
12:15 PM 64.4 °F - 44.6 °F 49% 30.15 in 10.0 mi NW 3.5 mph - N/A   Clear
12:35 PM 68.0 °F - 44.6 °F 43% 30.15 in 10.0 mi North 4.6 mph - N/A   Clear
12:55 PM 68.0 °F - 44.6 °F 43% 30.14 in 10.0 mi NE 4.6 mph - N/A   Clear
1:15 PM 69.8 °F - 44.6 °F 40% 30.14 in 10.0 mi ENE 4.6 mph - N/A   Clear
1:35 PM 69.8 °F - 44.6 °F 40% 30.12 in 10.0 mi ENE 4.6 mph - N/A   Clear
1:55 PM 69.8 °F - 44.6 °F 40% 30.12 in 10.0 mi North 4.6 mph - N/A   Clear
2:15 PM 71.6 °F - 42.8 °F 35% 30.12 in 10.0 mi East 3.5 mph - N/A   Clear
2:35 PM 71.6 °F - 42.8 °F 35% 30.12 in 10.0 mi North 6.9 mph - N/A   Clear
2:55 PM 71.6 °F - 42.8 °F 35% 30.12 in 10.0 mi North 8.1 mph - N/A   Clear
3:15 PM 71.6 °F - 42.8 °F 35% 30.12 in 10.0 mi NNE 6.9 mph - N/A   Clear
3:35 PM 71.6 °F - 42.8 °F 35% 30.12 in 10.0 mi North 6.9 mph - N/A   Clear
3:55 PM 69.8 °F - 42.8 °F 38% 30.12 in 10.0 mi NNE 6.9 mph - N/A   Clear
4:15 PM 69.8 °F - 42.8 °F 38% 30.13 in 10.0 mi NNE 8.1 mph - N/A   Clear
4:35 PM 68.0 °F - 42.8 °F 40% 30.13 in 10.0 mi NNE 5.8 mph - N/A   Clear
4:55 PM 64.4 °F - 44.6 °F 49% 30.14 in 10.0 mi NE 5.8 mph - N/A   Clear
5:15 PM 62.6 °F - 44.6 °F 52% 30.14 in 10.0 mi ENE 5.8 mph - N/A   Clear
5:35 PM 62.6 °F - 44.6 °F 52% 30.15 in 10.0 mi ENE 3.5 mph - N/A   Clear
5:55 PM 62.6 °F - 44.6 °F 52% 30.15 in 10.0 mi East 3.5 mph - N/A   Clear
6:15 PM 60.8 °F - 44.6 °F 55% 30.16 in 10.0 mi Calm Calm - N/A   Clear
6:35 PM 59.0 °F - 44.6 °F 59% 30.17 in 10.0 mi Calm Calm - N/A   Clear
6:55 PM 59.0 °F - 44.6 °F 59% 30.18 in 10.0 mi Calm Calm - N/A   Clear
7:15 PM 59.0 °F - 44.6 °F 59% 30.19 in 10.0 mi Calm Calm - N/A   Clear
7:35 PM 53.6 °F - 44.6 °F 72% 30.19 in 10.0 mi SSE 5.8 mph - N/A   Clear
7:55 PM 51.8 °F - 44.6 °F 76% 30.19 in 10.0 mi Calm Calm - N/A   Clear
8:15 PM 53.6 °F - 44.6 °F 72% 30.19 in 10.0 mi Calm Calm - N/A   Clear
8:35 PM 51.8 °F - 44.6 °F 76% 30.20 in 10.0 mi SSE 3.5 mph - N/A   Clear
8:55 PM 50.0 °F - 42.8 °F 76% 30.20 in 10.0 mi West 4.6 mph - N/A   Clear
9:15 PM 50.0 °F - 44.6 °F 82% 30.20 in 10.0 mi WSW 5.8 mph - N/A   Clear
9:35 PM 50.0 °F - 44.6 °F 82% 30.20 in 10.0 mi SW 5.8 mph - N/A   Clear
9:55 PM 50.0 °F - 44.6 °F 82% 30.20 in 10.0 mi SW 6.9 mph - N/A   Clear
10:15 PM 50.0 °F - 44.6 °F 82% 30.19 in 10.0 mi SW 6.9 mph - N/A   Clear
10:35 PM 50.0 °F - 44.6 °F 82% 30.19 in 10.0 mi SW 8.1 mph - N/A   Clear
10:55 PM 50.0 °F - 44.6 °F 82% 30.19 in 10.0 mi SW 8.1 mph - N/A   Clear
11:15 PM 48.2 °F - 42.8 °F 82% 30.19 in 10.0 mi SSW 5.8 mph - N/A   Clear
11:35 PM 46.4 °F 42.9 °F 42.8 °F 87% 30.20 in 10.0 mi SW 6.9 mph - N/A   Clear
11:55 PM 44.6 °F 40.2 °F 42.8 °F 93% 30.20 in 10.0 mi SW 8.1 mph - N/A   Clear